Weather History for KPDK - April, 2013

Change the Weather History Date:

Thursday, April 4, 2013

  Actual Average Record
Temperature  
Mean Temperature 42 °F 59 °F  
Max Temperature 46 °F 71 °F 82 °F (2011)
Min Temperature 39 °F 47 °F 39 °F (2005)
Degree Days  
Heating Degree Days 22 7  
Month to date heating degree days 30  
Since 1 July heating degree days 2799  
Cooling Degree Days 0 1  
Month to date cooling degree days 4  
Year to date cooling degree days 11  
Moisture  
Dew Point 40 °F    
Average Humidity 89    
Maximum Humidity 93    
Minimum Humidity 82    
Precipitation  
Precipitation 0.34 in 0.12 in 0.61 in (2012)
Month to date precipitation 0.52  
Year to date precipitation 15.31  
Snow  
Snow 0.00 in - - ()
Month to date snowfall  
Since 1 July snowfall  
Snow Depth -    
Sea Level Pressure  
Sea Level Pressure 30.07 in    
Wind  
Wind Speed 8 mph (ENE)    
Max Wind Speed 14 mph    
Max Gust Speed 29 mph    
Visibility 6 miles    
Events Rain    
T = Trace of Precipitation, MM = Missing Value Source: NWS Daily Summary

Daily Weather History Graph

Daily Weather History Graph

Search for Another Location

Airport or City:

Trip Planner

Search our weather history database for the weather conditions in past years. The results will help you decide how hot, cold, wet, or windy it might be!

Date:

Astronomy

Apr. 04, 2013 Rise Set
Actual Time 7:20 AM EDT 8:00 PM EDT
Civil Twilight 6:55 AM EDT 8:25 PM EDT
Nautical Twilight 6:25 AM EDT 8:55 PM EDT
Astronomical Twilight 5:55 AM EDT 9:25 PM EDT
Moon 3:30 AM EDT 2:32 PM EDT
Length of Visible Light 13h 30m
Length of Day
12h 40m
Waning Crescent, 34% of the Moon is Illuminated
Apr 4
Waning Crescent
Apr 10
New
Apr 18
First Quarter
Apr 25
Full
May 2
Last Quarter

Hourly Weather History & Observations

Time (EDT) Temp. Windchill Dew Point Humidity Pressure Visibility Wind Dir Wind Speed Gust Speed Precip Events Conditions
12:53 AM 46.9 °F - 43.0 °F 86% 30.15 in 7.0 mi ENE 8.1 mph - 0.02 in Rain Light Rain
1:53 AM 46.9 °F - 43.0 °F 86% 30.15 in 8.0 mi Variable 4.6 mph - 0.01 in Rain Light Rain
2:53 AM 46.9 °F - 43.0 °F 86% 30.13 in 9.0 mi ENE 6.9 mph - 0.01 in Rain Light Rain
3:00 AM 46.4 °F 42.9 °F 42.8 °F 87% 30.13 in 8.0 mi Variable 6.9 mph - 0.01 in Rain Light Rain
3:30 AM 46.4 °F 43.5 °F 42.8 °F 87% 30.11 in 6.0 mi Variable 5.8 mph - 0.05 in Rain Light Rain
3:37 AM 46.4 °F 43.5 °F 42.8 °F 87% 30.11 in 6.0 mi East 5.8 mph - 0.05 in Rain Light Rain
3:53 AM 46.0 °F 43.1 °F 43.0 °F 89% 30.12 in 5.0 mi East 5.8 mph - 0.07 in Rain Light Rain
4:38 AM 44.6 °F 40.7 °F 42.8 °F 93% 30.09 in 7.0 mi Variable 6.9 mph - 0.05 in Rain Light Rain
4:53 AM 45.0 °F 41.2 °F 42.1 °F 90% 30.09 in 9.0 mi Variable 6.9 mph 16.1 mph 0.05 in   Overcast
5:53 AM 45.0 °F 39.7 °F 41.0 °F 86% 30.09 in 5.0 mi East 10.4 mph 17.3 mph 0.02 in Rain Light Rain
6:53 AM 45.0 °F 39.7 °F 39.9 °F 82% 30.06 in 9.0 mi East 10.4 mph 24.2 mph 0.04 in Rain Light Rain
7:53 AM 44.1 °F 39.5 °F 39.9 °F 85% 30.10 in 6.0 mi East 8.1 mph 21.9 mph 0.02 in Rain Light Rain
8:43 AM 42.8 °F 37.5 °F 39.2 °F 87% 30.09 in 2.5 mi East 9.2 mph - 0.04 in Rain Light Rain
8:53 AM 43.0 °F 37.7 °F 41.0 °F 93% 30.10 in 3.0 mi East 9.2 mph 19.6 mph 0.05 in Rain Light Rain
9:21 AM 42.8 °F 37.5 °F 39.2 °F 87% 30.08 in 4.0 mi ENE 9.2 mph 24.2 mph 0.01 in Rain Light Rain
9:53 AM 43.0 °F 36.8 °F 39.9 °F 89% 30.11 in 5.0 mi East 11.5 mph 24.2 mph 0.01 in Rain Light Rain
10:36 AM 42.8 °F 37.0 °F 39.2 °F 87% 30.08 in 4.0 mi East 10.4 mph 20.7 mph 0.01 in Rain Light Rain
10:47 AM 42.8 °F 36.6 °F 39.2 °F 87% 30.07 in 4.0 mi East 11.5 mph 26.5 mph 0.01 in Rain Light Rain
10:53 AM 43.0 °F 36.0 °F 39.9 °F 89% 30.09 in 5.0 mi East 13.8 mph 27.6 mph 0.01 in   Overcast
11:30 AM 42.8 °F 37.5 °F 39.2 °F 87% 30.09 in 2.0 mi ENE 9.2 mph 28.8 mph 0.00 in Rain Light Rain
11:37 AM 42.8 °F 37.5 °F 39.2 °F 87% 30.09 in 3.0 mi ENE 9.2 mph 17.3 mph 0.01 in Rain Light Rain
11:53 AM 42.1 °F 36.6 °F 39.0 °F 89% 30.12 in 3.0 mi East 9.2 mph 23.0 mph 0.01 in Rain Light Rain
12:00 PM 42.8 °F 37.0 °F 39.2 °F 87% 30.10 in 3.0 mi ENE 10.4 mph 19.6 mph 0.00 in Rain Light Rain
12:53 PM 41.0 °F 33.9 °F 39.0 °F 93% 30.11 in 3.0 mi ENE 12.7 mph 18.4 mph 0.02 in Rain Light Rain
12:56 PM 41.0 °F 34.7 °F 39.2 °F 93% 30.08 in 3.0 mi ENE 10.4 mph 18.4 mph 0.00 in Rain Light Rain
1:53 PM 41.0 °F 33.9 °F 39.0 °F 93% 30.07 in 3.0 mi ENE 12.7 mph 23.0 mph 0.00 in   Overcast
2:00 PM 41.0 °F 33.9 °F 37.4 °F 87% 30.04 in 7.0 mi ENE 12.7 mph 23.0 mph N/A   Overcast
2:18 PM 41.0 °F 35.2 °F 37.4 °F 87% 30.03 in 9.0 mi East 9.2 mph 19.6 mph N/A   Overcast
2:53 PM 41.0 °F 34.7 °F 39.0 °F 93% 30.05 in 6.0 mi East 10.4 mph 19.6 mph N/A   Overcast
3:00 PM 41.0 °F 36.4 °F 37.4 °F 87% 30.02 in 4.0 mi ENE 6.9 mph 21.9 mph N/A   Overcast
3:07 PM 41.0 °F 37.1 °F 39.2 °F 93% 30.02 in 5.0 mi Variable 5.8 mph 17.3 mph N/A   Overcast
3:53 PM 41.0 °F 35.2 °F 39.0 °F 93% 30.04 in 6.0 mi ENE 9.2 mph - 0.00 in   Overcast
4:53 PM 39.9 °F 33.4 °F 37.0 °F 89% 30.03 in 6.0 mi East 10.4 mph 19.6 mph N/A   Overcast
5:15 PM 39.2 °F 33.0 °F 37.4 °F 93% 30.00 in 10.0 mi ENE 9.2 mph 16.1 mph N/A   Overcast
5:21 PM 39.2 °F 35.0 °F 37.4 °F 93% 30.00 in 10.0 mi Variable 5.8 mph - N/A   Overcast
5:53 PM 39.9 °F 33.9 °F 37.9 °F 93% 30.02 in 7.0 mi East 9.2 mph - N/A   Overcast
6:53 PM 39.9 °F 34.5 °F 37.9 °F 93% 30.01 in 9.0 mi ENE 8.1 mph - N/A   Overcast
7:53 PM 39.9 °F 35.8 °F 37.9 °F 93% 30.02 in 5.0 mi ENE 5.8 mph - N/A   Overcast
8:53 PM 39.9 °F 36.7 °F 37.9 °F 93% 30.01 in 4.0 mi Variable 4.6 mph - N/A   Overcast
9:53 PM 39.9 °F 35.8 °F 37.9 °F 93% 30.01 in 4.0 mi ENE 5.8 mph - N/A   Overcast
10:53 PM 39.9 °F 36.7 °F 37.9 °F 93% 30.01 in 9.0 mi East 4.6 mph - N/A   Overcast
11:53 PM 39.9 °F 35.8 °F 37.9 °F 93% 30.01 in 8.0 mi East 5.8 mph - N/A   Overcast